User: anonymous   Login
Location: Beccas
(43.4309°N, 0.1528°E)
Time: 22:03:19
(UTC+00:00)
Language:

Courier 1B Rocket - Orbit

View from above orbital plane
View from above orbital plane
View from above satellite
View from above satellite

Ground track
Ground track

The orbit data is extracted from the following two-line orbital elements,

1 00059U 60013B   22143.83990830  .00000109  00000-0  30901-4 0  9993
2 00059  28.2459 194.7454 0189314  86.7590 275.4595 13.53000007 41844
Epoch (UTC): 23 May 2022 20:09:28
Eccentricity: 0.0189314
inclination: 28.2459°
perigee height: 920 km
apogee height: 1202 km
right ascension of ascending node: 194.7454°
argument of perigee: 86.7590°
revolutions per day: 13.53000007
mean anomaly at epoch: 275.4595°
orbit number at epoch: 4184

The dashed part of the orbit path shows where the satellite is in the earth's shadow,  

DLR